K0WU2AZO Weather Reports


time (UTC)temp
C
wind
direction
speed
KPH
gust
KPH
rain 1hr
cm
rain 24hr
cm
rain mn
cm
humidity
%
barometer
mb
20260507155929 17 252 3.2 11.3 0.00 0.71 0.46 49 1006.5
20260507154430 16 275 4.8 12.9 0.00 0.71 0.46 52 1006.6
20260507152929 16 250 4.8 12.9 0.00 0.71 0.46 54 1006.7
20260507151430 16 103 3.2 9.7 0.00 0.71 0.46 57 1006.8
20260507145931 16 245 3.2 9.7 0.03 0.71 0.46 59 1006.7
20260507144430 15 193 1.6 8.0 0.03 0.71 0.46 64 1006.9
20260507142931 15 199 3.2 16.1 0.03 0.71 0.46 65 1007.3
20260507141430 15 262 3.2 12.9 0.03 0.71 0.46 62 1007.2
20260507135930 15 249 3.2 8.0 0.00 0.69 0.43 65 1007.3
20260507134430 15 72 0.0 4.8 0.00 0.69 0.43 71 1007.3
20260507132929 13 225 1.6 8.0 0.00 0.69 0.43 75 1007.5
20260507131431 12 248 0.0 8.0 0.00 0.69 0.43 81 1007.5
20260507125931 12 266 0.0 6.4 0.00 0.69 0.43 84 1007.6
20260507124433 11 273 1.6 9.7 0.00 0.69 0.43 88 1007.7
20260507122932 10 82 0.0 3.2 0.00 0.69 0.43 92 1007.9
20260507121429 9 190 0.0 8.0 0.00 0.69 0.43 92 1007.8
20260507115931 9 186 0.0 0.0 0.00 0.69 0.43 93 1007.7
20260507114432 9 123 0.0 0.0 0.00 0.69 0.43 93 1007.6
20260507112930 8 123 0.0 0.0 0.00 0.69 0.43 92 1007.6
20260507111431 8 123 0.0 0.0 0.00 0.69 0.43 92 1007.4
20260507105931 8 123 0.0 0.0 0.00 0.69 0.43 92 1007.4
20260507104433 8 123 0.0 0.0 0.03 0.69 0.43 92 1007.1
20260507102932 8 123 0.0 0.0 0.08 0.69 0.43 92 1007.6
20260507101433 8 123 0.0 0.0 0.13 0.69 0.43 92 1007.1
20260507095932 8 123 0.0 1.6 0.20 0.69 0.43 92 1007.2
20260507094433 8 123 0.0 1.6 0.25 0.66 0.41 91 1007.0
20260507092930 8 136 0.0 1.6 0.25 0.61 0.36 91 1006.9
20260507091432 8 331 0.0 3.2 0.20 0.56 0.30 91 1006.8
20260507085934 8 138 0.0 1.6 0.18 0.48 0.23 90 1007.0
20260507084430 8 139 0.0 1.6 0.13 0.41 0.15 90 1007.2
20260507082934 9 263 0.0 3.2 0.10 0.36 0.10 90 1007.1
20260507081433 10 237 0.0 1.6 0.10 0.36 0.10 88 1006.7
20260507075932 10 237 0.0 6.4 0.05 0.30 0.05 87 1007.0
20260507074432 11 153 0.0 9.7 0.03 0.28 0.03 86 1006.6
20260507072932 11 246 1.6 6.4 0.00 0.25 0.00 85 1006.5
20260507071432 11 181 0.0 6.4 0.00 0.25 0.00 85 1005.8
20260507065932 12 131 0.0 1.6 0.00 0.25 0.00 87 1005.6
20260507064432 12 150 0.0 4.8 0.00 0.25 0.00 86 1005.5
20260507062931 12 257 0.0 8.0 0.00 0.25 0.00 86 1006.0
20260507061432 12 245 1.6 3.2 0.00 0.25 0.00 86 1005.7
20260507055932 12 71 0.0 3.2 0.00 0.25 0.00 86 1005.9
20260507054432 13 260 0.0 9.7 0.00 0.25 0.00 85 1006.0
20260507052931 13 258 3.2 16.1 0.00 0.25 0.00 88 1006.3
20260507051431 13 240 0.0 14.5 0.00 0.25 0.00 89 1006.1
20260507045931 14 262 0.0 3.2 0.00 0.25 0.00 90 1005.9
20260507044431 14 163 1.6 9.7 0.00 0.25 0.00 90 1006.0
20260507042932 14 251 0.0 6.4 0.00 0.25 0.00 91 1005.9
20260507041432 14 269 0.0 6.4 0.00 0.25 0.00 91 1005.8
20260507035931 15 218 1.6 4.8 0.00 0.25 0.00 92 1005.8
20260507034431 15 236 0.0 3.2 0.00 0.25 0.25 92 1006.0
20260507032931 14 252 0.0 3.2 0.00 0.25 0.25 92 1005.8
20260507031432 14 210 1.6 3.2 0.00 0.25 0.25 92 1005.7
20260507025932 14 240 0.0 3.2 0.00 0.25 0.25 92 1005.6
20260507024432 14 244 0.0 3.2 0.00 0.25 0.25 92 1005.5
20260507022931 14 247 0.0 4.8 0.00 0.25 0.25 92 1005.6
20260507021433 14 246 0.0 3.2 0.00 0.25 0.25 92 1005.4
20260507015933 14 234 1.6 4.8 0.00 0.25 0.25 92 1005.7
20260507014432 14 240 0.0 3.2 0.00 0.25 0.25 92 1005.5
20260507012932 14 250 0.0 3.2 0.00 0.25 0.25 92 1005.7
20260507011432 14 242 1.6 3.2 0.00 0.25 0.25 92 1005.9
20260507005932 13 236 0.0 3.2 0.00 0.25 0.25 92 1005.9
20260507004431 13 219 0.0 3.2 0.00 0.25 0.25 92 1005.9
20260507002931 13 220 0.0 4.8 0.03 0.25 0.25 92 1005.9
20260507001434 13 243 1.6 6.4 0.05 0.25 0.25 92 1005.7
20260506235932 13 136 0.0 4.8 0.08 0.25 0.25 92 1005.6
20260506234431 14 157 0.0 3.2 0.08 0.25 0.25 91 1005.5
20260506232932 14 148 1.6 4.8 0.05 0.23 0.23 91 1005.4
20260506231431 14 148 0.0 4.8 0.03 0.20 0.20 91 1005.4
20260506225933 14 153 0.0 4.8 0.00 0.18 0.18 91 1005.5
20260506224431 15 143 1.6 4.8 0.00 0.18 0.18 91 1005.5
20260506222931 15 133 1.6 3.2 0.03 0.18 0.18 91 1005.5
20260506221431 15 157 1.6 6.4 0.05 0.18 0.18 91 1005.8
20260506215932 15 175 1.6 4.8 0.08 0.18 0.18 91 1005.7
20260506214431 15 217 0.0 4.8 0.08 0.18 0.18 90 1005.8
20260506212932 15 210 1.6 4.8 0.05 0.15 0.15 90 1006.1
20260506211431 15 254 1.6 11.3 0.05 0.13 0.13 89 1006.1
20260506205934 15 123 0.0 8.0 0.03 0.10 0.10 89 1006.2
20260506204432 15 231 1.6 4.8 0.05 0.10 0.10 89 1006.5
20260506202932 16 207 0.0 8.0 0.08 0.10 0.10 88 1006.8
20260506201434 16 158 1.6 6.4 0.08 0.08 0.08 87 1006.7
20260506195932 16 248 1.6 6.4 0.08 0.08 0.08 86 1006.6
20260506194434 17 98 0.0 4.8 0.05 0.05 0.05 86 1006.4
20260506192931 17 257 0.0 6.4 0.03 0.03 0.03 83 1006.8
20260506191433 18 207 1.6 4.8 0.00 0.00 0.00 80 1006.9
20260506185931 19 172 1.6 4.8 0.00 0.00 0.00 75 1006.8
20260506184434 20 223 4.8 9.7 0.00 0.00 0.00 69 1006.6
20260506182933 21 243 1.6 3.2 0.00 0.00 0.00 67 1006.9
20260506181435 21 148 1.6 8.0 0.00 0.00 0.00 65 1006.9
20260506175931 21 243 3.2 12.9 0.00 0.00 0.00 63 1007.1
20260506174434 22 226 4.8 14.5 0.00 0.00 0.00 60 1007.0
20260506172934 22 259 1.6 9.7 0.00 0.00 0.00 61 1007.2
20260506171433 22 236 6.4 12.9 0.00 0.00 0.00 59 1007.3
20260506165934 22 269 4.8 12.9 0.00 0.00 0.00 61 1007.3
20260506164433 22 116 4.8 14.5 0.00 0.00 0.00 61 1007.6
20260506162935 22 119 0.0 12.9 0.00 0.00 0.00 63 1007.7
20260506161433 22 184 1.6 8.0 0.00 0.00 0.00 65 1007.9